Wind_Speed
22 22 24 27 28 27 26 25 27 29 29 29 28 27 27 25 23 22 21 22 21 20 19 20 21 22 23 23 23 22 20 19 18 18 18 19 19 18 17 16 15 14 13 12 11 10 9 7 5 3 2 1 1 1 1 2 1 1 1 2 2 3 3 4 5 5 6 7 8
26 26 28 30 31 30 28 26 27 28 28 27 27 28 28 27 26 24 23 23 24 24 23 24 25 26 26 25 23 21 20 19 19 19 19 19 18 17 16 15 14 14 13 13 12 11 10 8 6 4 2 1 0 1 0 1 1 1 1 2 2 3 4 4 5 6 7 7 8
30 31 32 34 33 32 29 27 26 27 27 27 28 28 27 26 25 23 22 23 24 25 27 28 29 30 29 27 24 22 21 21 21 21 20 19 18 16 15 14 14 13 13 12 12 11 10 8 6 5 3 1 1 0 0 0 1 1 2 2 3 4 4 5 6 7 7 8 9
33 34 35 37 37 35 31 27 27 28 29 29 28 28 26 25 24 23 23 25 27 28 30 32 33 33 30 28 25 23 22 22 22 22 21 19 17 16 14 13 13 12 12 11 11 10 9 8 6 5 3 2 1 0 0 1 2 2 3 3 4 5 5 6 7 7 8 9 10
34 35 36 38 39 37 33 29 29 30 31 30 29 27 26 25 25 25 26 28 29 31 32 34 35 33 30 27 26 24 24 23 23 22 20 19 17 15 13 12 11 11 10 10 9 9 8 7 6 5 3 2 1 0 1 2 2 3 3 4 5 5 6 7 7 8 9 10 10
35 35 36 36 37 35 33 30 31 32 32 30 29 28 28 28 28 29 30 30 31 32 33 34 34 32 30 27 26 26 25 24 23 21 20 18 16 14 12 11 10 10 9 8 8 7 7 6 5 4 3 2 1 1 2 3 3 3 4 4 5 6 7 7 8 9 10 10 11
37 36 36 36 34 33 33 31 32 33 32 30 30 31 31 31 31 32 32 32 32 32 33 34 34 32 30 28 27 27 26 25 23 21 19 17 15 13 12 10 9 9 8 7 7 6 6 5 5 4 3 2 1 1 2 3 4 4 4 5 6 6 7 8 9 10 10 11 12
38 37 37 37 35 35 34 33 34 34 33 32 33 34 34 33 33 33 33 33 32 33 33 34 34 32 30 29 28 27 26 24 22 20 18 16 14 12 11 10 9 8 8 7 6 6 5 5 4 3 2 1 1 2 3 3 4 4 5 5 6 7 7 8 9 10 10 11 11
36 37 38 38 38 37 36 35 36 36 35 33 34 35 35 34 34 34 34 33 33 34 35 35 34 32 30 29 28 27 25 24 22 20 17 15 13 12 11 10 9 8 7 6 6 5 4 4 3 2 2 1 1 2 3 3 4 4 5 5 6 7 7 8 9 9 10 10 10
34 36 38 38 38 37 36 35 36 37 35 34 34 35 35 35 36 35 35 34 34 35 36 35 34 31 30 28 27 26 25 23 21 19 17 15 13 12 10 9 9 8 7 6 6 5 4 3 2 1 1 1 2 2 3 3 4 4 5 5 6 6 7 7 8 8 8 8 9
34 36 37 38 37 37 36 35 35 35 34 33 34 35 36 36 36 36 35 35 35 36 36 35 33 31 29 28 26 25 24 23 21 19 17 15 13 11 10 9 8 8 7 6 5 4 3 2 1 1 0 1 2 2 3 3 3 4 4 5 6 6 6 6 6 6 7 7 7
34 36 37 38 38 37 36 34 33 33 32 33 34 35 36 37 37 36 35 35 36 36 36 35 32 30 29 27 26 25 23 22 20 19 17 15 13 12 10 9 9 8 7 7 6 4 3 2 1 1 1 1 2 3 3 3 4 4 4 5 5 5 5 5 5 5 6 6 7
35 36 36 38 39 38 36 34 33 32 32 34 35 36 36 37 37 36 36 36 36 37 36 34 31 29 28 27 26 24 23 22 20 18 17 15 14 12 11 10 9 9 8 7 6 5 4 3 2 1 2 2 3 3 4 4 4 4 4 5 4 4 4 4 4 5 5 6 7
36 36 37 39 40 38 35 34 32 33 34 36 36 37 36 36 36 36 36 37 37 37 36 34 31 28 27 26 25 24 23 22 20 18 17 15 14 12 11 10 10 9 8 7 6 5 4 3 2 2 3 3 3 4 4 4 4 4 4 4 3 3 3 3 4 5 6 6 7
36 37 38 38 38 36 35 34 33 34 36 37 38 37 36 36 36 36 37 37 37 37 36 34 31 28 26 25 25 24 23 22 20 19 17 16 14 13 12 11 10 10 9 8 7 6 5 4 4 3 4 4 4 4 4 4 4 4 4 4 4 3 3 3 4 5 5 6 7
35 36 37 36 34 34 35 35 34 35 36 37 38 37 37 36 36 37 37 38 38 37 35 33 31 29 27 26 25 24 23 22 21 19 18 16 15 13 12 11 11 10 9 8 7 6 5 5 5 5 5 5 5 5 5 5 5 5 4 4 4 4 4 4 4 5 6 7 7
33 35 35 34 32 32 34 35 34 35 36 37 37 37 37 36 36 37 38 38 38 37 35 32 30 29 29 27 26 25 24 23 21 20 18 16 15 14 13 12 11 10 9 9 8 7 6 6 6 6 6 6 6 6 6 6 5 5 5 5 5 4 4 4 5 5 6 7 8
32 33 33 33 31 30 32 34 35 35 35 36 36 36 36 37 37 38 38 39 39 37 35 32 31 30 30 29 27 26 24 23 22 20 18 16 15 14 13 12 11 11 10 9 8 8 7 7 7 7 7 7 7 7 7 7 6 6 6 5 5 5 5 5 5 6 6 8 9
31 32 33 32 31 30 31 33 34 35 36 36 36 36 36 37 37 38 38 38 39 38 35 33 32 31 31 30 28 26 25 23 22 20 18 16 15 14 13 13 12 11 10 9 9 8 8 8 8 8 8 8 8 8 8 7 7 7 6 6 5 5 5 5 6 6 7 8 10
32 32 33 33 32 31 31 32 34 35 37 37 37 36 36 37 38 38 38 38 39 38 36 34 33 33 32 30 28 27 25 23 21 20 18 17 16 15 14 13 13 12 11 10 10 9 9 9 9 9 9 9 9 9 9 8 8 7 7 6 6 5 6 6 6 7 8 10 12
33 34 35 36 34 33 32 33 34 35 37 37 38 37 37 37 38 39 39 39 39 38 37 35 34 33 32 31 29 27 25 23 21 20 19 18 17 16 15 14 13 13 12 11 11 10 10 10 10 10 10 10 10 9 9 8 8 7 7 6 6 6 6 6 7 8 9 11 12
34 35 36 37 36 34 32 33 33 34 36 37 38 38 38 38 38 39 39 40 39 38 36 34 33 33 33 31 29 27 25 23 22 20 19 19 18 17 16 15 14 13 12 12 11 11 11 11 11 11 11 11 10 10 9 8 8 7 7 6 6 6 6 6 7 9 10 11 11
35 36 36 36 35 33 32 32 33 34 35 36 37 38 38 38 38 38 38 39 39 38 35 33 32 32 33 31 29 27 26 24 23 21 20 19 19 18 17 16 15 14 13 13 12 12 12 12 12 12 12 12 11 10 9 8 8 7 6 6 6 6 6 7 8 9 9 9 7
36 35 35 34 33 32 33 33 34 34 35 35 36 37 37 38 37 37 37 39 39 37 35 32 33 33 33 31 29 27 26 25 24 23 22 21 20 19 18 17 16 15 14 13 13 13 13 13 13 13 13 12 11 10 9 8 7 7 6 6 6 6 6 7 8 8 7 5 3
35 35 34 33 33 33 34 34 35 35 35 35 36 36 37 37 36 37 38 39 39 37 34 33 34 34 33 31 29 27 26 26 26 25 24 22 21 20 19 18 16 15 15 14 14 14 13 13 14 14 13 12 11 10 8 8 7 6 6 6 6 6 6 6 6 5 4 2 1
34 34 33 33 33 34 35 35 35 35 35 35 35 36 36 36 36 37 38 39 38 36 34 34 34 34 33 31 29 27 27 26 26 26 25 24 22 21 20 19 17 16 15 15 14 14 14 14 14 14 13 12 10 9 8 7 6 6 6 5 5 5 5 5 4 3 1 1 1
34 33 33 33 34 35 35 36 35 35 35 35 35 35 35 35 36 37 39 38 36 34 33 33 34 34 32 30 29 28 28 27 26 26 25 24 23 22 21 19 18 17 16 15 15 15 15 15 14 14 13 11 10 9 8 7 6 6 5 5 4 4 4 3 2 2 1 2 2
33 33 33 33 34 35 35 35 35 35 35 36 36 36 35 35 36 37 38 36 33 32 32 33 34 33 32 31 30 29 29 28 27 26 25 24 23 22 21 20 18 17 16 15 15 15 15 15 14 13 12 11 10 9 8 7 6 5 4 4 3 3 3 2 2 2 2 2 2
34 33 33 34 34 35 35 35 35 35 36 36 36 36 35 35 36 37 35 33 30 31 33 34 34 33 32 31 31 30 29 28 27 26 25 24 23 22 21 19 18 17 16 16 15 14 14 14 14 13 12 11 10 9 8 7 6 5 4 3 3 3 3 3 3 3 3 3 3
35 35 34 35 35 35 35 35 36 36 36 35 35 35 35 35 36 35 33 30 30 32 34 35 35 34 33 32 31 30 29 28 27 26 25 25 24 22 21 19 18 17 17 16 15 14 14 13 12 11 11 10 9 9 8 7 6 5 4 4 4 4 4 4 3 3 3 3 3
36 36 36 36 36 36 36 36 36 36 36 35 35 35 35 34 34 33 30 29 31 33 35 36 35 35 34 33 31 31 30 28 27 26 26 25 24 23 21 20 19 18 17 16 15 14 13 12 11 11 10 9 9 8 8 7 6 5 4 4 4 4 4 4 4 3 3 3 3
37 37 37 37 37 36 36 36 36 36 35 35 35 35 34 34 33 31 29 29 33 35 35 35 35 35 34 33 32 31 30 29 28 27 26 25 24 23 21 20 19 18 17 16 16 14 13 12 11 10 9 9 8 8 7 6 5 4 4 4 4 4 4 4 3 3 2 2 3
37 38 38 38 37 37 36 36 36 36 35 35 35 34 34 33 32 29 29 31 34 35 35 35 36 35 34 33 32 31 30 29 28 27 26 25 24 23 22 21 20 19 18 16 16 14 13 11 10 9 9 8 8 7 6 5 4 3 4 4 5 4 4 3 3 3 3 3 3
39 39 39 38 38 37 37 37 37 37 36 36 35 34 34 33 31 29 30 33 34 35 36 36 36 36 35 33 32 31 30 29 28 27 26 25 24 23 22 22 20 19 18 16 15 14 12 11 10 9 9 8 7 6 5 4 3 3 4 5 5 5 4 4 4 4 3 3 3
42 41 39 38 37 37 38 38 38 38 37 36 35 34 33 31 30 31 32 33 33 34 34 34 35 34 33 32 32 31 30 29 28 28 27 26 25 24 23 22 21 20 18 17 15 14 12 11 10 10 9 8 7 5 4 3 3 4 5 5 5 5 5 4 4 4 4 4 3
44 42 41 39 38 38 38 39 39 38 37 37 36 34 32 29 30 32 33 33 32 31 31 31 32 32 32 31 31 30 30 30 29 28 27 26 25 24 24 23 21 20 18 17 15 14 12 11 10 10 9 7 6 5 4 3 3 4 4 5 5 5 5 5 5 5 5 4 4
45 45 43 41 38 38 39 39 39 38 37 37 36 33 30 29 30 32 32 32 32 31 30 30 31 31 31 31 30 30 29 29 29 29 28 27 26 25 25 24 22 20 18 17 15 13 12 11 10 9 8 7 6 5 4 4 4 4 4 4 5 5 5 6 6 6 5 5 4
47 46 45 42 39 38 39 39 39 38 37 36 34 31 29 29 30 31 32 32 32 32 31 31 31 31 31 31 30 29 29 29 29 29 28 27 26 26 25 24 23 21 18 17 15 13 12 11 10 9 8 7 6 5 5 4 4 4 4 4 4 5 5 6 6 6 6 5 4
46 46 44 42 40 39 39 39 39 39 37 34 30 28 28 30 30 31 31 32 33 33 33 32 31 31 30 30 29 29 28 28 28 28 27 27 26 25 25 24 23 21 19 17 15 13 12 11 10 9 8 7 6 5 5 4 4 3 3 3 4 5 5 6 6 6 6 5 4
44 44 43 42 41 40 40 39 39 38 34 30 28 28 29 30 30 31 31 31 32 32 32 31 31 30 29 28 28 28 28 27 27 27 26 26 26 25 24 23 23 21 18 16 15 13 12 11 11 9 8 7 7 6 5 4 3 3 3 3 4 4 5 5 6 6 6 5 4
43 43 42 41 41 40 40 38 37 34 31 29 29 30 30 30 30 30 30 29 29 29 29 29 29 28 28 27 27 28 28 27 26 26 26 25 25 24 24 23 22 20 18 16 14 13 12 12 11 10 9 8 7 6 5 4 4 3 3 3 3 4 5 5 5 5 4 4 3
Wind_Direction
170 168 165 162 158 152 147 143 144 145 147 150 153 158 161 163 161 158 155 151 149 149 151 154 158 161 162 160 158 154 149 144 140 137 132 127 123 119 116 112 108 103 99 93 89 85 83 81 80 78 69 19 300 291 292 294 294 294 294 295 299 304 309 314 315 317 319 320 320
164 162 161 158 155 150 146 145 146 150 153 156 159 162 164 164 162 160 158 157 158 160 163 166 169 169 167 163 159 155 150 145 141 137 133 129 126 123 119 114 108 101 94 88 84 80 79 78 79 80 79 66 323 309 317 313 303 303 305 308 312 315 318 321 323 324 324 323 322
159 157 156 155 152 149 147 150 155 159 162 165 166 166 166 166 165 164 165 166 167 168 169 170 171 170 167 163 159 156 151 147 144 140 138 135 132 128 123 116 108 99 91 84 80 76 75 76 78 81 84 82 71 54 32 306 291 296 306 315 320 322 324 326 327 327 326 324 323
154 154 154 154 153 152 154 159 164 168 170 171 170 168 168 168 169 171 174 174 174 173 172 170 168 166 164 161 157 154 151 148 146 144 142 140 137 133 126 116 107 98 90 83 78 75 73 73 76 79 81 82 77 62 299 282 285 292 303 315 320 325 328 329 327 327 325 324 323
153 154 156 156 156 158 161 166 172 175 175 174 171 170 171 173 176 178 178 177 175 173 170 167 164 162 160 158 155 152 150 149 148 147 146 143 140 134 126 115 105 98 91 86 81 76 73 71 72 74 75 76 74 350 279 279 284 293 302 310 319 325 327 329 327 325 324 322 321
155 156 158 159 163 165 167 172 177 178 178 176 175 176 178 180 181 180 178 174 172 169 166 164 161 160 158 156 153 152 151 151 151 149 147 145 140 134 126 116 108 102 97 92 86 79 73 69 69 69 67 65 57 295 284 284 287 293 303 311 319 322 324 325 325 323 322 320 319
160 160 161 163 169 171 172 177 179 179 179 180 181 182 183 182 180 177 173 169 166 164 163 162 161 159 158 155 154 153 153 153 153 151 148 145 140 134 127 121 116 111 106 99 91 82 74 68 67 65 60 54 3 290 289 290 293 300 307 315 318 320 321 322 322 321 320 320 319
165 165 166 169 173 175 176 180 180 180 182 184 185 184 182 178 175 171 167 165 163 162 162 162 162 160 158 156 155 155 155 155 155 153 150 146 141 136 132 128 124 120 113 105 96 88 79 70 67 63 55 35 337 298 293 296 301 307 313 316 316 317 319 320 319 319 319 319 320
169 170 171 174 176 178 180 182 183 183 183 184 183 181 177 173 169 166 164 162 162 163 164 163 162 161 158 157 156 157 157 157 156 154 151 147 143 140 138 135 131 126 119 111 103 97 88 79 72 63 47 9 324 304 298 298 304 310 313 313 313 315 316 317 317 318 319 319 320
172 172 174 176 179 180 182 183 183 182 181 179 178 175 172 169 167 165 163 162 163 164 164 164 162 160 159 158 159 159 160 159 158 156 153 150 148 146 143 140 136 131 126 119 113 108 101 95 89 75 32 340 313 300 295 294 299 305 308 307 308 311 313 315 316 317 319 320 321
172 172 173 176 179 180 181 181 180 179 178 176 174 171 168 167 165 164 163 163 163 164 164 164 162 161 160 161 161 162 162 161 159 157 155 154 152 150 147 144 140 136 132 129 125 122 120 119 121 125 280 298 293 289 284 284 288 294 297 299 303 307 310 313 314 317 319 319 319
170 170 171 173 175 177 177 178 178 178 177 175 172 169 167 166 165 164 163 163 164 164 165 164 163 163 163 163 164 165 164 163 161 159 158 157 156 154 151 148 144 142 140 139 137 138 141 147 158 193 241 264 270 268 267 270 275 280 285 290 296 300 304 307 310 311 312 312 310
169 168 168 170 172 174 176 177 177 177 176 174 171 168 167 166 165 165 164 164 164 164 164 164 165 165 165 166 166 167 166 165 163 162 161 160 159 158 156 153 151 150 149 149 151 155 162 171 188 211 230 238 244 248 251 257 264 269 275 280 285 289 292 295 299 301 303 303 302
168 168 168 169 170 173 176 176 176 175 174 172 169 167 166 165 165 165 165 165 164 163 163 164 166 168 169 169 169 168 168 167 166 165 164 163 163 162 160 158 156 156 157 159 163 172 181 190 202 216 222 223 227 232 239 247 254 259 262 264 266 268 273 279 285 292 297 299 300
169 169 170 171 171 174 175 175 174 173 171 169 168 167 166 165 166 166 166 166 164 163 164 165 167 170 172 172 172 171 170 169 169 168 167 167 166 166 165 162 161 162 164 168 174 183 194 203 211 217 217 215 217 223 230 237 241 244 244 243 243 246 253 265 277 287 295 300 303
171 171 172 174 174 174 173 172 171 170 169 168 167 167 166 166 166 166 166 166 165 165 166 168 169 171 174 175 175 173 172 171 171 171 171 170 170 169 168 167 167 168 171 176 182 191 200 208 215 216 215 213 215 219 223 226 227 227 226 226 228 234 243 258 273 285 293 299 304
174 173 174 175 175 174 172 170 169 168 168 168 167 166 166 166 166 167 168 168 167 168 169 171 173 174 175 176 176 175 174 174 174 174 174 174 173 172 171 171 171 173 177 182 189 195 202 209 213 214 213 212 213 215 217 218 216 215 215 217 223 230 242 257 271 282 291 297 303
175 175 175 177 177 175 172 169 168 168 168 168 167 167 166 166 166 167 168 169 170 171 171 174 176 177 177 177 177 177 176 176 176 177 177 176 175 174 173 173 175 178 182 188 194 199 205 210 211 210 210 210 211 212 213 212 210 211 213 218 223 233 244 257 269 280 289 298 304
176 175 177 179 180 180 176 171 169 169 169 169 168 167 167 167 167 167 168 168 171 173 175 176 176 177 178 178 178 178 179 179 178 178 178 177 176 175 175 176 179 182 187 192 198 204 209 211 211 209 207 207 208 208 209 207 208 210 213 219 226 236 247 258 269 280 291 301 308
177 177 179 182 184 184 181 177 173 171 170 169 168 168 168 168 168 167 167 166 168 172 176 176 176 177 179 179 179 180 180 181 180 179 178 178 178 178 178 180 183 187 192 196 201 207 211 212 211 208 207 206 205 204 204 205 206 209 214 221 229 239 250 260 272 284 296 305 311
180 182 184 186 187 186 184 180 176 172 169 168 168 168 168 168 168 167 167 166 167 170 172 175 176 178 179 180 180 180 181 181 181 180 179 179 180 181 183 185 188 191 194 199 204 208 211 211 209 207 205 205 203 202 203 204 206 211 217 225 234 244 255 265 278 292 303 310 313
183 185 187 188 189 187 184 179 174 170 168 167 168 168 168 168 168 168 167 167 168 170 172 175 178 180 181 181 181 180 181 181 181 181 181 181 182 184 186 189 192 194 196 200 205 209 209 207 205 204 203 201 200 201 203 206 209 215 221 230 239 249 261 274 288 300 309 314 315
184 186 187 188 187 184 179 174 170 168 167 167 167 168 168 168 167 167 167 168 170 172 174 177 181 183 183 183 182 181 180 180 181 181 182 183 185 187 190 193 194 196 199 202 207 208 207 203 200 199 198 197 197 199 202 207 212 218 225 234 245 257 271 285 298 309 315 318 315
184 185 186 185 182 177 172 168 166 166 166 166 167 167 167 166 166 167 168 170 172 174 176 179 182 184 184 183 182 181 180 179 180 181 183 186 188 190 192 195 196 198 201 205 207 208 205 200 196 195 194 195 196 198 203 209 215 222 230 240 252 266 281 296 307 315 320 319 310
183 183 182 181 176 170 167 165 165 165 165 166 166 166 166 166 166 167 169 171 173 175 177 180 182 183 182 182 182 182 181 181 181 181 183 187 190 192 194 195 197 200 202 204 206 207 204 200 196 194 194 195 197 201 206 213 220 228 237 247 260 276 292 304 313 319 321 308 275
181 180 178 176 170 166 165 165 165 166 165 165 166 166 166 167 167 169 171 173 174 176 178 181 182 182 181 181 181 182 182 182 182 183 184 187 189 192 194 195 197 200 201 202 204 203 201 198 197 197 197 199 202 205 210 217 226 234 243 254 268 283 297 308 314 315 298 226 238
177 176 174 173 167 165 165 166 166 166 165 165 166 166 167 168 169 171 172 174 175 177 179 181 181 181 181 181 182 182 182 183 183 184 186 187 189 191 193 194 197 199 201 203 203 202 199 197 198 199 202 205 208 212 216 222 229 238 247 259 274 287 295 299 291 272 246 229 247
174 173 172 170 166 166 166 166 166 166 166 166 167 167 168 169 170 172 173 174 176 178 180 182 182 182 181 181 182 183 183 183 184 186 187 189 190 191 192 194 196 199 201 203 202 200 199 200 201 203 206 210 214 218 222 226 232 240 249 261 274 280 277 264 250 243 240 245 257
173 172 170 167 167 167 168 167 167 167 167 167 167 167 168 169 171 173 173 174 177 181 182 182 182 182 182 182 183 183 183 184 185 186 188 189 191 192 193 194 195 197 200 202 201 201 201 202 203 206 209 214 216 219 223 227 233 241 250 259 265 259 247 236 232 235 241 252 261
175 173 170 168 168 169 169 169 168 168 167 167 167 167 168 170 172 173 173 175 181 186 187 185 183 182 182 183 183 183 183 184 185 187 188 189 191 192 193 194 194 196 198 201 201 202 202 203 205 207 210 213 216 219 222 226 232 241 251 257 254 244 232 227 228 237 248 257 261
174 172 170 169 169 169 170 169 168 168 167 167 167 168 169 171 172 173 175 180 188 191 190 186 184 183 183 183 182 182 183 184 185 187 189 190 191 192 193 193 194 195 198 201 201 201 202 203 204 205 208 211 214 217 221 227 235 245 252 252 242 231 225 226 231 243 256 263 268
173 171 169 169 169 169 169 169 168 167 167 167 168 168 170 172 173 174 179 187 191 190 187 184 183 183 182 182 182 182 183 184 185 187 189 190 191 191 192 192 193 196 198 199 200 200 201 201 201 202 205 208 211 215 220 226 236 245 247 239 229 224 225 229 238 248 261 269 275
171 170 169 170 169 169 168 168 168 167 168 168 168 169 171 173 173 176 182 189 190 187 185 183 183 182 181 181 181 182 184 185 186 188 190 191 191 191 190 190 192 195 198 198 199 199 199 198 198 199 201 205 208 211 215 223 233 236 230 222 218 220 226 234 244 253 261 269 275
170 169 169 169 169 168 168 168 168 168 168 169 169 171 172 173 173 178 184 188 188 186 185 185 184 183 182 182 182 183 184 185 186 188 189 191 191 190 189 189 191 195 197 197 197 196 195 195 196 197 200 203 206 209 213 219 221 218 215 215 218 223 231 239 246 252 258 265 272
168 168 168 168 168 167 167 167 168 168 168 169 170 172 173 174 177 182 186 187 186 185 185 185 184 183 182 183 184 184 184 184 186 188 189 190 190 189 189 189 190 193 194 194 194 193 193 194 195 197 200 201 203 205 208 209 209 209 213 218 224 229 233 239 244 249 254 260 268
167 166 166 166 166 167 167 167 167 167 168 170 172 172 173 176 183 187 188 186 184 183 183 183 182 181 180 181 183 185 185 185 186 187 189 189 189 188 188 188 188 189 191 192 192 192 193 194 196 198 200 200 199 199 198 197 200 208 216 223 227 232 237 240 245 251 256 259 267
166 165 165 165 165 166 166 166 166 167 168 171 172 173 174 179 184 186 185 183 182 182 182 181 181 180 181 182 183 185 187 187 187 187 188 189 189 188 187 186 185 186 188 190 190 191 192 193 196 198 199 197 194 189 186 187 194 206 217 223 228 236 242 244 251 258 262 263 271
166 165 164 164 165 165 165 165 166 167 170 172 172 174 178 183 184 184 183 182 182 182 182 181 181 182 183 183 184 185 187 188 189 188 188 189 190 190 187 185 184 185 187 189 189 189 190 191 194 197 198 193 188 182 180 180 187 198 209 220 229 239 247 251 258 264 267 268 278
165 164 163 163 164 164 164 165 167 169 171 171 172 176 181 184 183 183 184 184 183 183 182 181 181 182 183 183 183 184 186 188 190 190 190 189 191 191 189 185 184 184 186 188 189 189 188 190 192 193 192 189 184 179 175 173 176 183 196 213 229 242 253 259 264 269 270 268 271
164 163 162 162 163 163 164 165 168 170 171 170 172 177 182 183 182 182 182 183 183 183 182 181 180 180 181 181 181 183 185 187 190 192 192 191 191 191 190 188 185 185 186 186 187 187 186 187 189 189 187 184 180 175 169 161 159 167 183 208 233 247 258 267 270 272 270 265 258
163 162 162 162 163 163 164 166 168 169 170 173 177 181 183 182 180 179 180 180 180 180 180 179 179 179 179 180 182 183 184 185 188 191 192 192 191 190 190 190 188 186 185 184 184 183 182 183 185 185 183 180 175 170 162 152 151 163 183 212 245 258 264 271 275 274 266 255 246
Height
735 740 743 746 748 750 752 754 755 757 759 763 767 771 774 777 777 778 779 779 780 782 784 786 788 789 790 790 790 791 792 792 793 794 795 796 797 798 799 799 800 800 800 800 800 800 800 800 800 801 802 803 803 804 805 805 805 806 806 806 807 807 807 807 807 807 807 807 807
733 738 742 745 748 750 753 755 758 760 761 764 767 770 773 775 775 776 777 778 779 780 783 786 787 789 790 790 790 790 791 792 793 795 796 797 797 798 798 799 799 798 798 798 799 799 800 800 800 801 802 802 803 803 804 804 805 805 806 806 806 806 806 806 806 806 806 806 806
732 737 740 744 747 750 753 757 759 760 762 765 767 770 771 773 774 775 777 778 779 780 783 785 786 787 788 788 789 789 790 791 793 794 795 796 797 798 798 797 797 797 797 797 798 799 799 800 800 801 801 802 802 803 803 804 804 805 805 805 805 806 805 805 805 805 805 805 806
731 735 738 741 745 749 753 756 759 761 762 764 767 769 770 772 773 775 776 778 779 780 782 783 784 785 785 786 787 788 789 791 792 794 795 795 796 796 796 796 796 796 796 797 798 798 799 800 800 800 801 801 802 802 803 803 804 804 805 805 805 805 805 805 805 805 805 805 805
730 733 736 739 742 746 751 755 758 760 762 764 765 767 769 770 773 774 776 777 778 779 780 781 782 783 784 785 785 787 789 790 792 793 794 795 795 795 795 795 795 795 796 796 797 798 798 799 800 800 800 801 801 802 802 803 803 803 804 804 804 804 804 804 804 804 804 804 805
729 732 735 738 741 745 750 754 756 759 760 762 764 765 767 769 771 773 774 775 777 778 779 779 780 781 782 784 785 786 788 790 791 792 793 794 794 794 794 794 794 795 795 796 797 797 798 798 799 800 800 800 801 801 801 802 802 802 803 803 803 803 803 803 803 803 804 804 804
727 731 734 737 741 745 749 752 755 756 759 761 762 764 765 767 769 770 772 773 775 776 778 779 779 780 781 782 784 785 787 789 790 791 792 793 793 793 793 794 794 795 795 796 796 797 797 798 798 799 799 800 800 800 801 801 801 801 801 802 802 802 802 803 803 803 803 803 803
726 729 733 736 739 743 747 750 752 754 756 758 760 761 763 765 766 768 770 772 774 775 776 777 778 779 780 782 783 785 787 788 790 791 791 792 792 792 793 793 794 794 795 795 796 796 797 797 798 798 799 799 800 800 800 800 800 800 801 801 801 802 802 802 802 802 802 803 803
726 729 731 735 738 741 745 748 750 752 754 756 758 760 761 763 765 766 768 770 772 773 775 776 777 779 780 781 783 785 786 788 789 790 790 791 791 792 792 793 793 794 794 795 795 796 796 797 797 798 798 798 799 799 799 799 799 800 800 801 801 801 802 802 802 802 802 802 802
725 728 731 734 736 740 743 746 748 750 752 754 756 758 760 761 763 765 766 768 770 772 773 775 776 778 780 781 783 785 786 787 788 789 789 790 791 791 792 792 793 793 793 794 795 795 796 796 797 797 797 797 798 798 798 798 799 799 800 800 801 801 801 801 801 801 801 801 802
725 727 730 732 735 739 742 744 747 749 751 753 755 757 759 760 762 764 765 767 769 770 772 774 775 777 779 781 783 784 785 786 787 788 788 789 790 790 791 792 792 792 793 793 794 795 795 796 796 796 797 797 797 797 798 798 799 799 800 800 800 801 801 801 801 801 801 801 801
725 726 729 731 734 737 740 743 746 748 750 752 755 756 758 759 761 762 764 766 767 769 771 773 775 776 778 780 782 783 785 785 786 787 787 788 789 790 790 791 791 792 792 793 794 794 795 795 795 796 796 796 796 797 797 798 799 799 800 800 800 800 800 800 800 800 800 800 801
724 726 728 730 732 735 739 741 744 746 749 751 753 755 756 758 760 761 763 764 766 768 770 772 774 776 778 779 781 782 784 785 785 786 786 787 788 789 790 790 791 791 792 792 793 793 794 794 795 795 795 796 796 797 797 798 798 799 799 799 800 800 800 800 800 800 800 800 800
724 725 727 729 730 733 736 740 742 745 747 749 751 753 755 757 759 760 761 763 765 767 769 771 774 775 777 779 780 781 783 783 784 785 786 787 787 788 789 790 790 791 791 792 792 793 793 794 794 795 795 795 796 796 797 797 798 798 799 799 799 799 799 799 799 800 800 800 800
724 725 726 728 730 731 734 737 740 742 745 746 749 751 753 755 757 759 760 762 764 766 768 770 772 775 777 778 780 780 781 782 783 784 785 786 787 787 788 789 789 790 790 791 792 792 793 793 794 794 795 795 796 796 797 797 797 798 798 798 799 799 799 799 799 799 799 799 799
723 724 725 727 729 731 733 735 738 740 742 745 746 749 751 753 755 758 760 761 763 765 767 769 771 774 776 778 779 780 780 781 782 783 784 785 786 786 787 788 789 789 790 790 791 791 792 793 793 794 794 795 795 796 796 797 797 797 798 798 798 798 798 798 798 799 799 799 799
723 724 725 727 730 731 732 733 736 739 741 743 745 747 749 751 754 756 758 760 762 764 765 768 770 773 775 776 778 779 780 780 781 782 783 784 785 785 786 787 788 789 789 790 790 791 791 792 793 793 794 794 795 795 796 796 796 797 797 797 797 797 798 798 798 798 798 798 798
722 723 725 728 730 732 732 733 735 737 740 742 744 746 747 749 752 754 756 757 759 761 764 767 769 771 773 775 776 777 778 779 780 781 782 783 784 785 785 786 787 788 789 789 790 790 791 792 792 793 793 794 794 795 795 795 796 796 796 797 797 797 797 797 797 797 798 798 798
720 722 725 728 730 733 734 734 734 736 739 741 743 745 747 748 750 752 754 755 757 759 763 766 768 770 772 774 775 776 777 778 779 780 781 782 783 784 785 785 786 787 788 789 789 790 790 791 792 792 793 793 794 794 795 795 795 795 796 796 796 796 796 797 797 797 797 797 797
718 720 723 727 730 732 733 734 734 735 737 740 742 744 746 747 749 751 752 754 755 758 761 764 767 769 771 773 774 775 776 777 778 779 780 781 782 783 784 785 786 786 787 788 789 790 790 791 791 792 792 793 793 793 794 794 795 795 795 795 795 796 796 796 796 796 796 796 796
715 718 721 725 728 730 731 732 733 734 735 737 740 742 744 746 748 749 750 752 755 757 760 763 765 768 770 771 773 774 775 776 777 778 779 780 781 782 783 784 785 786 787 787 788 789 790 790 790 791 791 792 792 793 793 794 794 794 795 795 795 795 795 795 795 795 795 795 796
714 716 719 722 725 727 729 730 732 733 735 736 738 740 743 745 747 748 750 751 754 756 759 762 765 767 769 770 771 773 774 775 776 777 778 779 780 781 783 783 784 785 786 787 788 788 789 790 790 790 791 791 791 792 792 793 793 794 794 794 794 794 795 795 795 795 795 795 795
711 715 718 720 723 725 727 729 730 732 734 736 738 740 741 744 746 748 750 751 753 755 758 761 764 766 767 769 770 771 773 774 775 776 777 779 780 781 782 783 784 785 785 786 787 788 788 789 789 790 790 790 791 791 791 792 792 793 793 793 794 794 794 794 794 794 794 794 794
710 713 716 720 722 724 726 728 730 732 734 736 737 739 741 743 745 748 750 751 753 755 757 760 762 765 766 768 769 770 771 772 774 775 777 778 779 780 781 782 783 784 785 785 786 787 787 788 788 789 789 790 790 790 791 791 791 792 792 792 793 793 793 793 793 793 793 794 794
709 712 715 718 720 722 725 727 729 731 733 735 737 739 740 742 745 747 749 750 752 754 756 759 761 763 765 767 768 769 770 771 772 774 775 777 778 779 780 781 782 783 784 785 785 786 786 787 787 788 788 789 789 789 790 790 791 791 791 792 792 792 792 792 792 793 793 793 793
709 712 715 717 720 721 724 726 728 730 732 734 737 739 740 742 744 746 747 749 751 753 755 758 760 762 764 765 767 768 770 770 771 773 774 775 777 778 780 780 781 782 783 784 784 785 786 786 787 787 787 787 788 788 789 789 790 790 790 791 791 791 791 792 792 792 792 792 792
708 711 714 717 719 721 723 725 727 729 731 734 736 738 740 742 744 745 747 748 750 752 754 757 759 761 763 765 766 767 769 770 771 772 773 775 776 777 778 780 780 781 782 783 783 784 785 785 786 786 786 786 787 787 788 789 789 790 790 790 790 790 791 791 791 791 791 791 791
707 710 714 717 719 721 723 725 727 729 731 733 735 737 739 741 743 745 746 747 749 751 754 757 759 760 762 764 765 766 767 769 770 771 773 774 775 776 777 778 779 780 781 781 782 783 784 784 785 785 785 786 786 786 787 788 788 789 789 789 790 790 790 790 790 790 790 790 790
706 710 713 716 719 721 723 724 726 728 730 732 734 736 738 740 742 744 745 746 748 751 754 756 758 760 761 762 764 765 766 768 769 770 772 773 774 775 776 777 778 779 780 780 781 782 782 783 784 784 785 785 785 786 786 787 787 788 788 789 789 789 789 790 790 789 789 789 789
705 709 712 715 718 720 722 723 725 727 729 731 733 735 737 740 741 743 744 745 748 751 753 755 757 758 760 761 762 764 765 767 768 769 770 772 773 774 775 776 777 778 779 780 780 781 781 782 783 783 783 784 784 785 785 786 787 787 788 788 788 789 789 789 789 789 788 788 788
703 707 710 713 716 718 720 722 724 726 728 730 732 734 736 738 740 741 743 745 749 751 753 754 755 756 758 759 761 762 764 765 767 768 769 770 772 773 774 775 776 777 778 778 779 780 780 781 781 782 783 783 783 784 785 785 786 787 787 788 788 788 788 788 788 788 787 787 787
701 705 708 712 714 716 719 721 723 725 727 729 731 733 735 737 738 740 742 746 750 751 753 753 754 755 756 758 760 761 763 764 765 767 768 769 770 772 773 774 775 776 777 778 778 779 780 780 780 781 782 782 783 783 784 785 785 786 787 787 787 787 787 787 787 787 787 787 787
700 703 706 710 712 715 717 720 722 724 726 728 730 732 734 736 737 740 743 747 749 750 751 751 752 754 755 757 758 760 762 763 764 765 767 768 769 770 772 773 774 775 776 777 777 778 779 779 780 780 781 781 782 783 784 784 785 786 786 787 787 787 786 786 786 786 786 786 786
697 700 704 708 710 713 715 718 720 722 724 726 729 731 733 735 736 740 743 746 748 749 750 750 751 752 753 755 757 759 760 762 763 765 766 767 768 770 771 772 773 774 775 776 776 777 778 778 779 780 780 781 781 782 783 784 785 785 786 786 786 786 786 785 785 785 785 785 785
694 698 702 705 709 711 714 716 718 720 723 725 728 730 732 733 735 739 743 745 747 748 749 750 751 752 753 755 756 757 759 760 762 763 765 766 767 769 770 771 772 773 774 775 775 776 777 777 778 779 779 780 781 782 782 783 784 785 785 785 785 785 785 785 785 785 785 785 785
692 695 699 703 707 710 712 714 716 719 721 724 726 729 730 732 735 739 742 744 746 748 749 750 752 753 754 755 756 757 758 759 760 762 764 765 766 768 769 770 771 772 773 774 775 775 776 777 777 778 779 779 780 781 782 783 783 784 784 784 784 784 784 784 784 784 784 784 784
690 693 697 702 705 708 710 712 715 717 720 723 725 726 729 732 736 739 741 743 745 747 749 750 751 752 753 754 755 756 757 758 760 761 762 764 765 766 768 769 770 771 772 773 774 775 775 776 776 777 778 779 779 780 781 782 782 783 783 784 784 784 784 784 784 784 784 784 784
688 691 695 700 704 707 709 711 714 716 719 721 723 725 729 733 736 739 740 742 744 745 747 749 750 750 751 753 754 755 757 758 759 760 762 763 765 765 767 768 769 770 771 772 773 774 775 775 775 776 777 778 779 779 780 781 781 782 782 783 783 783 783 783 783 783 783 783 783
686 689 693 698 702 705 707 710 713 715 718 720 722 725 729 733 735 737 739 740 742 744 745 747 749 750 751 752 754 755 757 758 759 760 761 763 764 765 766 767 768 769 770 771 772 773 774 774 775 776 776 777 778 779 779 780 780 781 782 782 782 783 783 783 783 783 782 782 782
685 688 692 696 700 703 706 709 712 714 716 718 722 726 730 732 735 736 738 740 742 743 745 747 748 750 751 752 754 755 756 758 759 760 761 762 763 765 765 766 767 769 770 771 772 773 773 774 774 775 776 776 777 778 779 779 780 780 781 781 782 782 782 782 782 782 782 781 781
684 688 692 695 699 701 705 708 710 712 715 718 722 726 729 732 734 736 738 740 742 744 745 747 748 750 751 752 753 755 756 758 759 760 761 762 763 764 765 766 767 768 769 770 771 772 773 773 774 774 775 776 776 777 778 778 779 780 780 781 781 782 782 781 781 781 781 781 780